Wind_Speed
9 13 16 19 20 24 25 27 29 28 29 30 29 28 28 28 28 27 27 27 26 23 18 21 25 22 20 22 21 19 19 18 19 21 23 23 24 24 21 21 23 23 23 22 21 21 22 23 22 21 19 17 18 17 15 15 15 16 16 17 20 20 18 17 19 20 17 12 10 10 8 7 5 5 5 6 8 10 13 14 13 12 12 10 11
8 10 15 20 22 25 26 27 29 27 27 28 28 27 27 28 29 28 28 26 24 25 25 25 26 24 21 21 19 17 18 17 17 20 22 23 23 23 21 21 23 24 23 22 22 22 23 24 24 22 20 18 18 16 15 15 16 16 18 20 22 21 19 19 20 18 14 12 10 8 7 5 4 4 5 6 7 8 10 12 12 12 12 11 11
7 8 12 18 23 26 25 25 26 27 27 28 28 27 27 27 28 27 27 25 23 26 28 25 24 25 22 21 21 21 21 19 17 18 20 22 22 22 22 22 22 23 23 23 22 22 23 24 25 22 20 19 19 17 15 16 17 18 21 23 22 19 18 19 19 14 14 16 11 5 3 3 3 3 4 6 6 7 9 12 12 12 12 13 12
10 8 9 14 21 23 23 24 25 26 27 27 27 27 27 27 27 27 25 25 24 26 28 22 20 22 19 18 21 22 21 20 18 17 19 22 22 22 23 23 23 22 22 23 22 21 22 23 23 22 19 19 19 18 17 18 19 19 20 24 24 22 20 20 17 13 17 18 8 3 2 2 1 1 3 4 5 7 9 11 11 11 11 12 11
10 10 10 11 16 20 22 24 24 23 25 25 25 26 27 27 27 27 25 25 24 26 28 22 18 21 19 18 19 18 17 18 18 18 20 22 23 23 23 23 23 22 22 22 21 21 21 21 22 21 19 18 19 18 18 19 18 18 19 22 25 25 23 23 18 13 17 18 11 6 4 0 1 2 4 3 4 6 8 9 10 10 10 10 10
6 8 10 10 12 17 19 21 22 22 22 23 24 24 25 25 26 26 26 26 25 25 29 26 22 24 23 21 22 20 19 21 22 23 23 24 24 24 24 23 23 23 22 21 20 20 20 20 21 20 19 19 18 16 17 19 18 18 19 21 23 24 25 24 19 16 20 18 11 8 4 2 6 8 4 1 2 5 6 8 9 10 10 10 10
6 7 8 9 11 13 15 19 21 21 21 22 23 23 24 24 25 26 26 26 26 27 31 30 27 27 27 27 28 26 24 25 26 25 25 24 23 23 24 24 23 22 21 21 20 19 19 20 20 20 21 20 17 16 17 19 19 19 20 20 21 22 24 24 21 20 23 17 11 10 5 4 13 14 6 3 3 3 6 9 10 10 10 10 11
8 9 9 9 9 8 8 11 12 14 19 23 25 25 26 26 26 26 27 28 28 28 31 31 29 30 30 29 29 29 29 29 27 24 23 23 23 23 24 24 23 22 20 20 20 19 18 19 20 20 21 19 17 17 18 19 19 19 19 19 19 21 21 22 22 23 23 17 12 10 6 7 16 14 11 10 5 2 4 6 9 11 11 11 13
4 3 2 2 4 5 3 2 5 9 16 22 25 27 29 30 31 30 29 30 30 30 32 31 31 33 32 31 30 30 31 29 27 25 23 25 24 23 24 24 23 21 20 20 19 18 19 19 19 20 20 19 18 17 18 19 19 20 20 19 19 20 19 20 21 23 23 18 14 9 6 14 15 9 12 13 6 4 3 3 7 10 10 12 15
8 8 7 9 12 11 6 3 6 7 14 24 26 27 30 32 33 34 33 32 32 32 33 32 33 34 33 33 31 30 29 27 25 25 25 26 25 24 24 24 23 21 20 20 19 19 19 18 19 20 19 19 18 17 18 19 18 19 20 19 19 19 19 20 21 22 23 20 16 13 14 19 13 6 12 14 8 6 3 4 9 9 9 12 15
9 10 10 12 16 15 11 8 7 5 6 22 28 27 28 28 28 30 32 34 33 33 34 33 33 35 33 33 33 30 28 27 25 25 26 26 25 25 25 23 23 22 20 20 20 19 19 19 19 19 18 17 18 19 19 19 18 18 19 18 19 18 18 19 20 21 22 20 18 17 18 21 17 12 16 18 13 8 5 5 9 11 10 12 15
9 9 9 11 14 15 15 15 13 11 7 4 14 22 26 25 25 27 31 34 34 33 33 32 33 34 33 32 33 31 28 28 28 27 27 27 26 25 24 21 21 21 20 20 21 20 20 20 20 19 17 17 19 20 19 19 18 18 18 19 19 19 18 18 19 20 20 20 20 19 18 21 20 17 20 22 19 16 12 8 10 12 8 9 15
10 8 8 8 9 11 13 15 11 8 9 8 5 21 28 25 24 28 31 33 34 33 32 31 32 33 32 32 31 31 29 28 29 29 29 29 28 26 24 22 21 22 20 20 21 21 21 20 20 19 18 17 18 19 19 18 17 18 19 20 19 19 18 18 19 20 19 18 19 20 18 19 19 17 19 22 19 18 17 12 11 12 7 9 14
9 8 9 7 7 9 10 14 12 10 12 9 16 28 26 17 17 22 28 30 32 33 32 30 30 30 30 31 30 29 27 25 26 28 29 29 29 27 26 24 24 24 23 23 23 22 20 19 18 18 18 17 17 18 18 18 17 17 18 19 19 18 17 17 18 18 18 17 18 19 19 17 18 16 17 20 20 19 20 17 13 9 6 9 11
10 11 11 11 11 11 8 11 10 6 6 7 17 20 11 5 7 11 17 23 25 28 30 29 29 29 28 28 28 26 24 23 23 25 28 30 29 28 26 24 25 26 25 24 24 21 19 19 18 18 18 17 17 19 19 19 17 17 17 18 18 17 16 16 17 17 18 18 17 18 19 17 17 16 16 20 21 19 21 24 20 10 5 6 7
12 13 14 15 18 17 13 7 3 4 4 6 12 12 9 7 5 6 6 9 13 16 19 19 18 21 24 26 26 24 25 26 25 25 27 30 29 28 26 25 25 26 25 25 23 21 20 21 20 20 20 17 17 19 20 19 17 16 17 19 18 17 16 16 16 16 17 17 16 16 18 18 17 15 16 19 21 20 21 26 26 19 10 5 4
11 11 11 14 18 19 18 14 8 3 1 2 5 8 9 7 5 4 4 8 12 12 12 12 10 12 17 21 22 22 25 28 27 26 28 29 29 28 27 26 26 26 26 24 22 21 22 22 21 21 21 18 18 19 18 18 17 16 18 19 18 17 16 16 16 16 15 15 15 16 18 17 16 15 16 18 18 20 23 26 28 27 20 10 4
9 9 9 12 16 18 19 20 17 11 9 6 3 6 9 10 9 8 10 14 16 13 15 19 19 19 19 20 21 21 23 26 27 28 28 28 29 29 29 28 28 27 25 24 23 22 23 22 21 21 20 19 18 18 18 18 17 16 17 18 17 17 17 16 17 16 15 15 14 16 17 16 16 16 17 17 16 19 24 26 27 27 23 17 12
8 8 7 9 13 17 18 21 22 19 17 12 6 6 8 10 12 13 14 15 16 18 21 25 26 27 26 24 24 23 23 25 26 28 29 29 31 32 32 31 30 27 25 24 24 24 24 23 21 21 21 20 18 17 17 18 17 17 17 17 16 16 17 18 17 16 16 16 14 15 16 15 16 17 16 16 15 17 23 26 26 26 23 20 19
7 7 7 8 12 17 18 20 23 22 22 20 15 9 7 8 11 12 12 13 17 21 21 20 20 22 24 25 26 25 25 25 26 29 30 30 30 32 33 33 31 28 27 26 25 25 25 23 23 22 21 19 18 17 17 17 17 17 17 17 17 17 17 18 18 16 16 17 16 15 15 15 16 16 16 18 17 17 22 25 24 25 24 21 20
8 7 7 8 12 16 18 20 22 23 23 23 21 18 13 10 10 10 9 11 15 17 16 16 18 20 22 24 26 27 28 28 31 32 25 19 21 27 31 34 32 30 28 27 26 25 24 23 24 22 20 18 17 17 17 16 16 16 17 17 18 18 18 17 17 16 15 17 16 16 16 16 16 15 15 17 19 18 21 24 21 20 23 22 21
8 8 6 8 11 15 18 21 23 23 22 21 21 21 20 17 14 10 8 9 12 13 14 17 19 20 22 23 24 27 29 30 32 30 20 15 20 25 29 34 33 31 29 27 27 25 23 24 24 21 20 18 16 17 18 16 15 15 17 18 19 19 17 16 16 16 15 15 16 16 16 16 16 16 15 16 19 19 19 22 20 17 19 20 22
8 7 8 10 13 15 18 21 22 21 21 22 21 22 21 20 19 16 12 11 11 12 14 16 16 17 20 21 22 25 28 30 31 26 21 21 23 24 29 34 33 31 30 28 26 25 24 23 22 21 21 18 16 18 18 16 15 15 15 17 18 18 18 17 17 16 14 14 15 15 16 17 16 16 15 16 18 19 18 18 19 18 19 17 17
8 8 11 15 18 19 20 21 21 20 21 21 21 21 21 21 22 20 17 15 13 14 14 15 16 16 17 18 19 23 27 29 26 20 20 22 21 21 27 32 33 31 30 28 25 24 24 23 23 23 21 18 17 19 19 17 15 15 15 16 17 17 17 17 16 15 14 14 14 14 15 17 17 16 15 16 17 18 18 18 18 17 18 16 14
11 12 13 16 18 20 21 21 21 21 22 21 21 21 19 20 23 23 20 18 15 15 14 14 17 17 16 16 18 22 25 26 21 15 19 23 22 22 24 29 32 31 28 27 25 23 23 23 24 24 22 19 18 19 19 18 15 15 16 16 16 16 16 15 15 15 14 13 13 13 13 16 18 16 15 16 16 17 17 17 17 16 18 18 15
12 13 13 14 15 18 20 21 21 22 22 22 21 21 20 20 24 25 22 20 17 13 10 12 18 20 19 19 19 20 23 23 18 14 20 24 25 26 25 26 30 29 27 26 25 24 24 24 24 23 22 21 19 18 18 17 15 15 16 15 14 16 15 15 15 15 14 13 12 12 13 15 17 17 16 16 15 15 15 16 15 14 15 17 13
12 12 12 13 14 17 21 22 21 21 22 22 22 23 23 23 26 29 25 21 17 9 7 13 18 21 19 18 19 20 23 23 17 15 22 25 27 29 27 25 26 27 27 26 25 24 24 24 24 23 23 22 19 17 17 18 16 14 14 13 13 15 15 15 15 15 14 13 11 11 12 14 17 17 16 16 15 14 15 15 14 11 13 16 14
11 12 12 13 13 15 20 22 22 22 23 23 23 25 26 26 28 30 28 24 19 11 10 14 18 20 17 15 17 19 21 23 19 19 25 28 28 29 28 26 26 26 26 26 25 24 24 24 25 25 23 22 19 16 17 18 15 14 13 13 13 15 16 16 16 15 15 13 10 9 10 12 14 16 15 15 14 14 14 16 15 11 12 18 18
12 11 11 11 11 13 17 19 21 22 23 23 24 26 27 28 29 30 29 25 21 16 12 11 15 21 22 17 17 19 19 21 23 24 27 28 25 27 29 27 27 27 26 26 24 22 23 25 26 25 22 20 18 17 18 17 15 14 15 14 14 15 16 17 18 17 15 12 9 6 7 9 11 12 13 12 11 12 12 14 15 12 13 17 17
11 11 10 10 11 13 15 17 19 21 22 22 23 24 26 29 29 29 28 26 22 19 16 12 10 16 22 22 20 20 19 20 25 27 28 26 24 28 29 26 28 29 27 26 24 22 25 27 26 24 22 19 18 18 18 17 15 15 15 14 14 14 15 17 18 17 15 12 9 7 7 8 9 9 11 9 7 8 8 8 9 9 11 14 13
11 11 10 10 12 14 15 16 18 19 20 21 21 23 26 28 29 27 27 26 25 23 20 17 13 10 15 22 21 21 19 19 25 29 28 27 26 29 29 24 27 31 28 27 27 26 27 27 25 23 22 20 19 18 18 17 16 16 14 13 13 12 13 16 16 16 16 14 12 10 9 9 10 10 10 9 9 8 8 7 6 5 4 4 8
10 11 11 11 12 15 16 17 18 19 20 20 20 22 25 26 27 26 26 26 26 26 25 22 19 13 7 14 18 22 21 19 25 29 28 26 26 28 28 26 30 32 29 29 29 29 28 26 25 24 22 21 20 18 18 17 17 17 15 13 12 11 12 14 16 16 17 16 14 13 11 10 10 11 10 9 10 10 9 9 10 10 10 7 5
9 10 11 11 12 14 17 17 18 19 19 19 19 20 22 22 24 25 25 26 27 28 29 27 24 20 12 5 10 23 25 22 25 29 26 24 26 28 28 29 32 32 31 32 32 31 30 27 24 23 22 21 20 18 18 16 15 15 15 14 12 10 11 14 17 18 18 17 15 14 13 11 9 9 9 10 11 10 8 9 9 8 8 9 8
9 9 9 11 12 15 17 18 19 19 19 19 20 19 19 21 24 26 27 27 27 28 31 31 29 26 20 12 4 16 25 25 26 28 26 26 27 29 29 31 34 34 33 34 32 31 30 26 23 22 20 20 19 17 16 16 15 15 15 14 12 13 15 16 18 18 18 17 16 15 14 12 10 9 9 10 11 10 9 8 8 7 6 6 7
8 8 10 12 14 15 17 18 19 19 19 20 21 20 20 23 26 28 29 29 29 29 31 32 32 31 27 21 15 9 15 24 28 28 27 28 29 30 30 31 34 35 34 34 32 30 29 25 22 20 19 18 16 14 14 14 15 16 17 16 16 18 20 19 19 19 18 18 17 15 14 13 11 10 10 10 10 10 10 10 10 9 8 6 6
7 9 11 13 15 15 16 17 18 19 20 21 21 20 21 24 26 28 29 30 31 31 31 31 32 34 32 28 23 17 12 17 28 30 28 28 29 30 32 34 34 34 33 32 31 29 28 26 22 19 19 18 15 13 13 13 14 16 18 19 20 21 22 21 21 20 19 18 16 14 13 12 11 11 11 10 9 9 9 10 11 10 9 8 7
10 11 12 14 15 15 16 16 18 19 20 20 20 20 21 24 26 28 29 29 31 32 30 30 31 32 34 33 29 23 17 14 26 31 28 28 28 27 30 34 36 34 33 31 30 29 28 27 24 21 20 20 18 15 13 14 15 15 17 20 21 22 24 24 23 22 20 19 16 14 13 12 12 11 10 9 8 6 7 8 8 7 6 5 5
12 13 13 14 15 15 17 18 19 20 20 20 20 19 21 24 26 26 27 28 29 29 28 28 29 29 32 34 33 30 23 17 23 30 28 28 28 25 26 32 36 35 34 31 30 30 29 27 26 24 22 21 20 17 15 16 17 17 19 21 22 24 25 25 23 21 19 18 16 14 13 12 12 11 10 8 7 5 5 5 4 4 4 4 5
13 14 13 14 14 15 17 19 19 20 20 20 20 21 23 24 25 25 26 27 27 26 26 26 26 27 30 33 34 33 28 23 23 28 29 29 28 27 27 30 33 34 33 32 31 31 31 29 27 25 23 22 21 19 17 18 18 19 21 22 23 24 25 24 22 20 18 17 15 14 13 12 11 10 9 7 6 5 4 4 4 4 5 6 7
14 14 13 14 15 16 17 18 19 19 20 21 21 23 24 24 24 25 26 26 24 23 24 25 25 26 29 32 34 34 31 29 28 28 29 30 29 28 28 29 30 32 32 31 31 33 33 30 28 27 25 23 22 20 18 18 19 19 20 22 23 24 24 23 21 19 18 16 14 13 12 11 10 9 8 8 7 6 5 5 4 4 5 5 6
16 15 14 15 15 16 16 16 17 18 19 21 22 23 24 23 24 26 26 24 22 21 23 25 27 28 29 30 33 32 30 30 29 30 31 30 29 28 27 26 27 29 32 32 32 33 33 31 29 28 27 25 23 21 19 17 17 17 17 18 19 21 21 20 18 17 15 14 13 12 11 11 10 9 8 8 7 7 6 5 5 5 6 5 5
17 17 17 16 16 17 17 16 16 17 18 19 21 22 23 23 24 24 25 25 24 23 23 25 27 29 30 30 32 32 30 28 28 28 29 27 26 25 26 25 25 26 30 32 32 33 33 31 28 27 26 25 22 20 19 18 16 15 14 14 15 16 14 12 12 13 12 11 11 11 11 11 11 11 10 10 9 9 9 9 9 9 8 7 7
16 17 17 17 17 17 18 16 15 15 16 18 20 21 21 22 23 22 22 24 25 26 25 26 27 28 29 29 29 30 30 29 27 26 26 24 22 21 21 22 22 23 26 30 32 33 32 30 28 26 25 24 22 20 18 17 16 15 14 14 14 13 10 8 9 11 11 10 11 12 13 13 13 13 13 13 14 13 13 13 13 12 11 9 8
14 15 16 17 18 18 17 16 15 14 15 16 17 18 18 19 20 20 20 20 22 23 25 26 26 26 26 27 26 25 25 26 25 24 24 24 22 20 19 17 16 17 19 23 28 30 30 28 26 23 22 21 20 18 16 15 14 13 13 14 14 13 11 10 11 13 13 13 14 14 14 14 14 15 17 17 17 16 15 14 13 12 12 11 10
13 14 14 16 17 17 17 16 16 16 15 14 14 15 15 15 15 16 17 18 19 20 21 23 24 24 23 23 23 23 23 23 23 22 22 22 20 19 20 18 16 16 17 21 25 26 26 26 24 21 20 19 17 16 15 14 13 12 12 13 13 13 12 12 13 15 16 16 16 16 17 18 18 19 18 18 17 16 15 14 13 12 11 11 11
10 11 12 13 15 16 16 17 18 18 16 15 14 13 12 13 13 13 13 13 15 16 17 17 19 21 22 21 21 20 20 20 21 22 22 21 19 18 19 19 18 17 18 21 23 23 23 22 20 19 18 17 16 15 15 14 13 12 12 12 13 13 13 14 14 16 17 17 18 20 21 21 21 19 18 18 18 16 14 13 13 12 12 12 12
6 8 9 11 12 14 15 16 17 19 18 16 15 14 13 11 11 13 14 12 12 13 14 13 13 15 18 21 21 19 18 17 17 18 19 19 19 20 20 21 20 19 18 20 20 20 20 19 18 18 17 16 16 16 16 15 14 13 13 13 14 15 16 17 18 19 20 21 22 23 22 21 20 19 18 17 16 14 13 13 13 13 13 13 13
3 4 6 8 9 10 12 14 15 18 19 17 15 17 16 12 9 11 13 13 13 13 14 14 13 10 11 14 17 18 17 16 16 15 16 17 17 16 17 19 20 19 18 18 18 18 17 16 16 16 16 17 18 18 17 16 15 15 16 16 17 18 20 21 22 23 24 24 23 22 21 20 19 18 18 17 16 15 15 14 14 13 12 12 11
2 2 4 5 6 6 8 9 10 13 16 16 15 16 17 14 12 11 11 12 13 13 14 15 15 12 8 6 9 14 16 16 16 15 15 15 15 13 13 15 16 16 16 15 14 14 13 13 14 14 15 17 19 19 18 18 17 17 18 19 20 21 22 22 22 22 22 21 20 19 19 18 18 18 18 18 17 16 15 15 15 14 13 13 12
3 3 3 2 3 4 4 5 6 8 10 12 13 14 15 14 14 13 12 12 13 12 12 13 14 14 12 6 4 8 12 14 15 15 14 15 14 14 13 14 15 15 15 14 14 13 12 13 15 16 17 18 19 19 19 18 18 19 19 19 20 20 20 20 20 19 19 19 20 21 20 19 19 19 19 18 17 16 16 16 16 16 16 15 15
5 5 5 5 4 3 3 3 4 5 7 9 10 11 11 11 12 13 13 14 14 13 12 13 14 14 14 13 8 6 7 9 11 13 14 14 14 14 14 15 15 15 14 14 15 14 13 14 16 19 20 20 19 18 17 16 16 18 19 19 19 19 19 19 18 17 19 21 22 23 22 21 20 20 19 18 17 16 17 16 16 17 17 17 17
Wind_Direction
171 174 168 166 166 165 170 174 176 179 182 181 178 179 178 175 172 169 176 188 189 186 183 190 196 194 197 202 201 201 204 203 204 209 209 206 203 199 198 196 195 197 198 196 192 188 184 182 179 175 174 180 183 183 183 177 170 168 160 157 161 162 159 153 149 143 129 115 111 113 119 135 152 158 171 180 185 199 199 195 191 181 179 179 177
153 162 159 157 160 164 170 175 177 177 177 177 176 175 175 173 171 170 177 182 183 188 190 192 196 194 194 197 195 196 202 203 203 209 210 206 203 198 196 196 196 199 200 197 193 189 186 184 182 177 173 179 184 183 180 172 167 167 161 156 161 164 163 158 153 143 129 128 125 110 99 108 131 155 177 189 186 196 198 193 194 189 183 187 189
160 161 158 156 161 166 170 175 178 177 174 175 176 174 173 171 170 172 177 178 182 192 189 183 192 198 196 196 195 195 199 201 204 212 212 207 205 200 198 197 196 198 199 196 193 189 187 186 182 177 173 177 181 179 175 170 167 168 165 162 161 161 163 166 169 161 144 137 127 115 108 90 104 138 156 170 176 184 192 194 198 197 189 190 195
168 165 162 161 165 169 172 177 179 177 175 176 174 171 169 170 172 174 175 177 184 192 188 178 183 194 199 198 195 194 196 198 202 211 211 207 205 202 201 201 200 198 196 193 192 190 187 184 180 176 175 180 182 177 172 173 174 173 171 167 163 156 158 169 179 178 161 151 134 103 101 86 135 130 106 134 175 180 186 197 197 195 191 188 193
169 169 168 170 173 176 177 177 179 179 178 176 172 169 169 171 175 175 173 176 184 191 188 180 177 188 196 194 190 190 193 196 200 207 209 206 206 205 204 204 204 201 196 192 192 190 184 180 178 176 177 186 187 178 174 178 184 184 179 174 170 165 163 172 183 193 184 173 158 136 120 98 204 148 115 118 177 185 188 197 192 191 192 186 188
159 166 170 175 178 179 178 177 181 183 181 174 170 170 170 171 174 175 173 177 184 188 187 185 185 188 188 185 186 187 190 197 202 206 206 204 206 208 207 206 206 205 200 197 196 192 183 178 178 177 181 190 190 183 179 183 187 187 186 182 179 176 171 173 185 197 192 185 180 171 168 202 163 144 134 106 154 181 189 193 188 187 191 187 184
145 154 168 177 182 182 181 183 185 183 177 170 168 169 169 172 177 178 178 179 181 183 186 186 186 187 187 189 192 190 193 201 204 206 206 204 206 208 208 206 206 207 204 201 202 197 187 182 181 182 187 191 190 187 185 188 189 187 187 189 187 185 180 178 183 188 189 196 209 205 228 224 170 158 160 154 143 179 183 186 190 186 186 184 179
156 164 176 180 180 176 177 188 188 179 173 169 166 168 172 177 183 186 186 184 183 185 187 188 186 185 187 191 194 196 202 205 201 200 202 205 211 210 206 204 204 208 207 205 204 198 189 184 183 188 193 193 191 190 190 191 192 189 188 191 191 192 192 188 186 185 189 196 200 205 240 198 172 168 171 157 135 156 159 173 191 187 185 181 176
101 124 146 104 75 75 80 159 167 164 168 168 167 171 179 184 186 189 189 187 188 191 191 191 191 188 187 189 195 200 207 207 198 193 196 203 212 210 204 202 201 205 208 206 203 197 192 187 186 194 197 194 193 194 195 193 192 191 189 191 192 193 199 199 193 189 191 193 186 185 176 164 162 167 170 157 135 152 151 158 180 182 188 184 179
42 36 33 36 48 60 60 107 150 161 167 167 170 178 186 189 187 186 186 186 190 194 194 194 193 191 189 190 194 199 205 206 197 189 192 199 208 207 202 201 201 202 204 203 199 195 197 193 189 196 197 195 197 196 195 194 193 194 192 194 195 194 198 202 201 197 197 197 191 180 162 159 158 151 165 163 148 154 166 165 171 176 186 185 184
40 37 35 33 44 54 60 77 73 37 146 166 170 181 192 192 187 182 182 186 191 193 194 196 196 194 193 194 196 198 201 201 194 190 192 196 203 205 201 202 203 201 199 200 197 194 197 196 192 194 193 196 199 194 190 192 194 196 196 198 198 195 196 200 204 203 201 201 198 190 178 175 178 176 175 172 162 159 156 154 175 184 186 186 184
35 35 30 27 34 41 50 62 53 32 37 127 160 177 195 197 188 183 183 187 191 194 195 197 198 198 197 197 199 201 203 200 194 193 193 195 199 201 199 202 205 203 199 196 194 191 193 195 195 194 191 193 195 193 193 193 195 199 200 201 198 194 197 199 199 201 200 200 200 198 193 191 193 192 186 181 178 174 163 154 176 182 184 189 182
30 29 26 23 28 33 50 65 58 64 69 42 132 184 203 203 188 186 187 188 191 194 198 199 201 203 201 201 202 205 209 206 200 198 196 196 197 197 197 199 202 205 202 193 189 190 192 193 196 194 190 190 190 192 196 194 194 199 199 199 195 193 198 201 200 201 201 200 201 201 201 202 202 200 193 190 187 177 163 156 172 177 173 180 181
27 24 24 19 22 28 60 81 64 63 92 121 179 194 209 209 195 193 191 191 192 193 198 201 204 206 205 205 206 206 209 210 206 203 200 198 198 196 196 198 199 200 197 190 185 187 188 187 188 185 183 186 189 192 195 192 192 195 195 194 192 193 199 203 205 206 205 203 203 204 207 208 205 202 198 195 191 180 168 159 160 168 166 172 181
24 21 22 16 18 20 44 92 91 86 106 167 205 215 238 264 240 227 205 199 198 195 198 200 204 208 207 208 211 207 205 209 214 211 204 201 199 196 196 197 197 195 191 186 183 183 183 181 181 181 182 186 191 191 190 190 190 192 193 193 192 193 198 201 204 207 206 205 206 207 209 208 205 206 206 203 199 194 183 170 161 154 150 171 184
23 18 17 13 13 14 16 45 107 185 191 233 247 262 302 331 301 281 265 228 214 205 204 203 207 213 213 213 213 209 204 207 215 214 207 204 200 196 195 195 195 192 187 184 182 181 182 181 182 185 185 183 184 184 184 186 188 190 192 192 193 194 196 198 202 203 203 204 207 209 206 204 207 210 208 204 204 203 195 181 171 166 163 165 186
30 22 17 11 10 9 8 7 358 335 300 241 261 283 285 290 297 295 290 249 226 218 211 205 209 222 226 223 216 209 206 207 212 212 208 206 202 197 195 194 191 187 185 184 183 182 182 181 181 183 183 180 180 183 184 185 188 191 191 192 195 196 196 199 201 201 202 204 206 206 204 203 207 206 198 198 203 205 199 188 181 178 172 162 161
31 26 22 15 10 6 6 9 14 24 36 65 62 313 281 265 262 242 232 229 220 211 207 209 212 215 221 226 222 215 209 208 210 210 209 207 202 196 193 191 187 184 185 185 184 183 183 182 179 180 182 180 180 183 185 187 189 189 190 191 194 196 198 202 202 202 204 204 204 205 204 205 208 203 194 196 202 205 201 195 190 186 181 174 169
22 19 19 16 10 5 5 10 15 23 30 41 42 334 295 267 257 246 246 248 236 223 217 216 215 212 213 216 219 220 216 212 211 209 209 208 203 195 190 188 185 184 185 185 185 185 184 182 179 178 180 181 182 183 184 189 191 189 191 193 192 196 201 204 205 206 208 207 204 204 204 203 206 204 198 200 204 205 204 200 195 193 190 188 180
12 10 9 8 7 2 4 12 14 17 22 27 27 8 325 291 281 276 278 270 252 240 231 225 218 211 210 213 217 221 221 218 215 212 212 211 204 194 186 182 181 182 182 181 183 184 183 183 180 176 177 179 180 179 180 185 187 187 191 194 193 196 202 205 205 207 210 208 204 205 206 202 202 204 201 203 205 204 203 200 197 197 199 201 195
6 3 1 1 2 358 3 14 17 16 18 20 21 18 9 350 324 302 287 267 255 249 245 243 233 218 212 214 219 221 221 222 218 216 218 217 207 196 186 180 178 178 179 177 178 180 180 179 176 172 172 175 177 179 181 182 182 183 187 191 192 195 199 202 203 204 206 208 208 209 210 206 206 206 203 206 207 205 202 199 200 201 201 206 208
5 356 354 359 3 3 6 14 18 17 14 14 16 17 16 12 4 345 311 284 276 268 257 251 240 225 218 218 221 222 223 224 221 218 220 218 211 204 191 181 177 177 177 176 175 177 177 174 172 172 172 174 175 177 180 181 181 184 187 191 194 195 198 201 203 204 205 207 210 211 211 210 211 212 210 211 210 206 202 203 206 202 198 207 215
3 353 354 1 7 11 13 14 16 14 10 10 13 13 12 11 10 6 354 337 324 310 286 265 246 228 222 222 223 223 225 225 223 218 215 213 214 211 197 182 175 175 176 175 175 176 177 175 175 175 174 172 170 170 175 178 180 183 184 188 194 196 198 200 202 204 202 203 207 210 212 212 211 214 216 215 213 210 209 211 213 204 200 212 220
3 4 5 3 5 11 13 12 10 9 7 6 9 11 11 10 9 7 360 351 344 338 322 288 262 243 232 227 223 225 226 224 221 215 206 208 213 211 196 179 170 171 171 171 171 172 174 175 175 173 170 169 170 171 176 181 184 187 185 186 189 191 195 200 199 199 197 199 205 208 212 213 213 216 216 214 214 215 215 215 214 207 204 215 221
9 14 12 6 4 7 8 7 5 4 3 2 5 8 9 10 12 9 357 348 349 351 339 300 267 252 242 232 222 223 225 222 219 209 196 200 201 196 188 174 167 168 168 169 169 169 171 172 171 171 168 169 171 171 176 183 187 186 185 187 190 191 196 201 198 194 194 198 204 209 211 212 215 216 213 212 213 215 218 216 212 205 201 209 217
17 17 13 7 4 3 4 5 5 2 0 359 1 3 4 6 12 13 2 352 358 2 337 288 261 249 244 236 223 219 223 223 221 203 192 193 189 181 178 172 167 166 167 170 172 173 173 171 170 171 170 170 171 172 178 183 181 177 181 187 190 192 197 201 199 196 196 200 207 214 218 216 217 216 210 210 211 211 214 214 213 208 196 203 217
20 19 14 9 5 0 1 4 5 4 2 0 0 0 0 2 9 15 11 2 5 3 300 276 261 251 244 234 224 219 219 219 214 196 189 187 180 175 173 172 170 167 165 168 173 176 177 175 174 172 171 171 172 173 177 180 177 176 180 180 177 181 186 189 192 190 190 197 203 210 218 221 222 221 215 212 212 209 211 214 218 214 199 207 226
21 21 17 12 8 1 0 2 3 4 4 2 2 2 1 4 9 13 13 9 10 360 302 282 270 262 255 236 222 215 210 208 201 189 182 178 175 174 171 170 173 172 168 168 173 178 179 175 171 169 169 170 172 173 176 176 175 178 181 176 171 174 174 171 170 171 176 185 191 200 212 219 223 222 217 215 214 212 213 215 218 216 203 213 232
20 21 18 14 10 4 3 3 2 4 4 3 3 2 1 5 10 13 14 11 13 9 344 312 282 270 264 249 226 213 208 200 190 181 175 175 177 173 168 171 178 176 170 168 171 175 173 168 164 163 164 164 165 169 170 169 168 168 165 160 159 163 162 158 158 163 170 173 172 182 203 210 213 213 210 210 213 216 216 213 216 220 214 216 230
21 18 16 13 11 9 9 8 6 5 5 5 3 1 1 5 7 9 12 12 15 16 9 356 319 283 267 255 234 217 212 197 184 178 172 173 178 171 167 176 182 174 166 165 165 163 161 160 157 156 156 156 158 161 163 164 164 163 158 151 150 151 153 153 156 161 165 162 158 165 182 188 188 191 195 194 193 200 204 203 208 215 219 226 236
24 19 17 13 11 12 12 12 10 7 7 7 3 2 6 9 7 7 9 12 17 20 19 16 5 326 271 254 234 216 210 191 179 178 172 170 175 171 169 174 170 162 160 161 159 155 154 155 154 152 150 149 149 151 155 158 159 160 163 159 151 146 149 157 162 162 162 161 161 162 162 161 161 164 168 158 141 142 150 153 153 145 157 225 236
25 23 20 17 13 12 11 9 9 8 9 9 7 8 12 11 9 11 13 16 20 22 22 21 19 13 311 257 227 205 201 185 172 172 170 173 176 170 165 162 154 153 153 152 151 150 150 151 151 150 147 142 142 143 145 150 153 155 159 159 153 141 138 154 167 167 164 162 158 156 156 154 157 160 159 147 135 131 126 119 114 109 102 105 140
19 24 24 21 17 14 11 8 8 9 10 13 16 18 18 16 16 19 21 23 26 26 25 23 21 24 19 321 206 188 187 180 169 167 166 169 169 162 159 154 148 148 148 144 143 145 144 145 145 145 142 139 140 140 139 142 147 153 160 162 156 142 134 151 167 167 161 158 154 154 155 150 149 155 154 147 142 138 131 120 114 110 104 105 115
13 19 21 18 19 19 17 14 12 12 14 20 25 26 25 27 29 30 30 29 29 29 29 27 24 26 30 31 91 166 172 167 164 164 159 156 156 153 151 148 145 145 143 140 139 140 139 140 142 140 138 136 138 140 141 141 137 141 156 163 154 144 142 151 160 157 152 152 152 151 147 137 131 132 133 137 138 134 131 129 132 135 124 113 113
15 14 14 14 15 16 17 17 15 15 17 23 27 27 30 34 35 35 35 33 32 32 32 32 29 28 32 35 43 88 142 147 149 153 150 145 146 145 143 141 140 140 139 137 137 137 137 137 137 138 136 131 131 138 143 144 137 132 139 144 141 140 142 146 149 148 146 147 147 144 137 131 125 116 111 118 126 128 125 118 117 125 128 121 111
30 27 24 22 21 18 18 19 19 20 23 24 26 28 32 36 37 38 37 36 36 35 32 33 33 33 34 35 39 48 76 119 132 137 137 135 136 138 138 137 135 132 132 132 132 132 132 131 131 134 132 122 119 128 141 147 146 140 135 131 131 134 135 136 136 137 137 137 136 133 128 125 122 113 106 108 114 122 125 115 107 107 105 101 96
40 41 41 41 38 34 31 28 26 27 27 27 28 30 35 37 38 38 37 37 37 35 33 33 35 38 40 39 41 43 42 80 114 121 122 124 126 128 130 133 133 128 126 126 125 124 124 125 124 124 123 116 108 112 128 141 147 148 141 133 131 130 127 125 123 124 126 126 122 120 119 119 116 108 102 104 107 112 115 107 99 95 90 82 77
39 40 41 42 43 42 39 37 35 32 30 31 32 33 37 39 38 37 36 36 36 33 32 33 34 39 47 47 46 43 36 53 93 107 111 115 118 117 118 123 126 124 122 122 120 117 115 115 114 112 113 111 104 101 112 126 137 146 144 137 134 129 124 122 119 117 117 117 113 110 108 108 106 98 93 95 97 95 95 85 66 50 34 13 359
43 41 39 38 41 43 43 42 39 35 33 35 35 37 40 40 37 36 36 36 35 33 33 36 36 41 51 57 55 49 39 43 70 91 101 106 109 110 111 114 117 117 116 115 115 112 107 104 103 103 103 104 101 99 103 111 121 133 140 139 136 130 123 119 117 114 111 109 107 104 99 94 90 85 81 79 78 71 62 50 30 16 11 5 354
35 37 37 38 40 42 42 41 39 38 40 40 39 40 41 38 37 38 35 33 35 39 42 44 47 49 53 60 63 58 48 44 54 71 86 96 102 105 108 109 111 112 112 110 108 105 100 97 97 97 95 94 93 93 96 103 109 118 127 132 133 130 124 118 114 110 105 101 98 93 87 81 77 74 68 62 59 53 47 40 25 19 23 21 11
34 34 34 35 36 37 39 38 37 40 44 45 45 44 42 39 39 38 35 33 37 45 49 50 53 55 57 59 63 63 55 49 53 63 74 84 93 99 102 102 104 108 109 105 102 100 97 94 93 93 90 87 85 84 85 92 101 108 117 123 124 123 123 120 114 106 99 94 89 84 80 76 72 70 69 68 68 67 67 66 59 55 58 59 56
39 38 36 33 32 33 34 33 35 39 43 47 50 49 46 42 40 38 40 42 44 46 49 52 54 56 58 59 61 63 60 55 55 61 67 74 82 90 95 97 99 105 107 104 101 99 97 93 91 90 88 84 81 77 73 74 82 94 106 116 116 114 116 119 114 105 96 87 81 81 82 82 80 82 85 86 85 84 81 75 69 67 67 70 78
39 38 35 33 31 29 29 30 31 36 42 47 51 52 50 46 42 41 45 49 49 48 48 50 53 55 58 59 59 61 62 61 60 60 63 66 71 78 87 95 100 102 104 104 102 100 98 95 91 88 86 82 77 73 70 70 72 81 92 102 107 108 111 118 113 103 97 93 92 94 95 94 94 94 92 89 86 84 82 78 74 73 72 74 80
41 40 37 35 30 25 26 29 29 30 35 43 49 51 50 47 45 46 47 49 50 50 49 48 48 52 56 59 60 59 61 64 65 64 64 63 64 69 79 92 104 106 103 102 102 101 100 96 92 86 83 81 78 74 75 75 75 79 87 93 99 103 106 110 107 103 105 108 105 102 100 100 100 97 93 90 87 84 81 78 76 75 74 74 75
42 40 37 33 29 25 24 25 24 22 24 30 37 44 46 44 44 46 48 50 51 52 51 49 49 50 52 55 59 59 59 62 65 69 72 69 64 63 70 83 98 109 108 102 100 100 99 96 95 91 85 84 85 88 92 91 87 90 94 97 101 105 105 105 104 104 107 109 105 104 104 105 104 102 98 94 89 85 82 79 75 72 69 66 65
43 39 33 27 25 25 25 24 23 22 22 19 19 24 33 38 41 41 41 46 48 47 46 47 51 56 56 55 56 57 58 58 60 66 76 81 78 72 72 78 88 100 107 106 102 101 100 98 98 95 91 90 91 93 96 97 96 98 99 98 99 102 102 101 101 103 106 108 109 111 111 108 105 102 100 95 91 87 83 78 72 67 64 61 59
44 37 34 28 23 21 21 21 24 27 29 27 22 19 18 21 33 41 40 39 41 41 40 40 46 57 65 65 63 62 62 60 58 59 65 71 76 76 75 78 84 94 107 114 113 112 111 107 103 99 95 93 92 90 90 91 94 97 100 100 101 101 103 103 103 104 107 110 112 113 110 107 105 101 97 93 89 84 78 73 68 63 61 59 57
34 31 33 32 30 26 21 18 22 29 35 37 33 28 26 25 33 43 46 43 38 34 36 38 39 46 64 74 75 74 73 72 69 67 63 61 62 64 66 71 81 91 102 113 119 120 116 111 109 107 102 97 94 92 92 94 98 103 106 108 109 107 107 107 106 107 109 111 113 112 108 105 102 96 90 85 80 75 71 67 61 55 51 48 45
347 17 27 29 32 35 29 21 19 27 37 41 35 30 32 39 42 39 39 40 36 30 29 30 33 37 46 68 83 84 85 85 85 83 81 77 74 71 70 73 81 90 98 105 111 114 115 113 111 111 110 106 101 98 97 98 101 104 105 107 108 108 108 108 108 110 113 113 110 104 98 95 90 86 82 77 72 69 65 58 52 45 39 33 30
290 301 306 325 5 22 25 21 15 20 32 37 32 25 26 31 33 33 31 29 27 25 24 23 29 41 50 58 88 96 94 96 98 97 96 94 90 88 88 87 88 94 101 106 106 108 114 117 113 110 110 109 106 102 99 98 99 100 100 101 104 108 110 110 110 113 112 107 101 94 89 86 83 80 76 71 66 61 56 52 47 43 39 39 42
278 284 287 288 298 319 339 358 3 11 23 25 19 19 22 22 23 28 30 25 20 22 30 32 33 45 60 68 75 96 106 105 106 108 109 107 103 99 95 94 94 95 97 101 105 109 111 112 113 114 113 110 106 101 98 99 101 100 98 99 103 107 107 108 112 112 105 98 96 93 89 85 82 78 73 68 63 58 55 52 49 45 44 47 51
Height
756 758 760 762 764 766 767 768 767 767 767 769 771 774 777 781 784 787 789 791 794 797 800 799 798 799 800 801 802 804 807 808 809 811 813 814 814 816 817 818 820 821 822 823 823 824 824 825 825 826 827 828 829 831 833 834 835 836 837 838 839 840 842 843 844 844 844 846 847 848 848 849 849 850 850 851 852 852 853 855 856 857 858 859 859
756 758 759 761 762 763 765 766 766 766 768 770 772 774 777 780 783 786 787 790 793 794 795 796 796 797 799 800 802 805 807 809 809 811 812 813 814 815 816 817 818 820 820 821 822 822 823 824 825 825 826 827 829 831 832 833 833 835 836 838 840 840 840 842 843 843 845 846 847 848 850 850 850 850 851 851 852 852 854 855 856 856 857 859 860
757 757 758 759 760 761 763 765 766 767 768 770 771 774 777 781 783 785 787 789 791 792 793 795 796 797 799 800 802 803 805 807 808 811 812 813 813 814 815 815 816 818 819 820 821 821 822 823 823 825 825 826 828 829 830 831 832 834 835 837 840 841 841 842 842 842 844 846 848 849 850 851 851 851 851 852 852 853 854 855 856 856 857 859 860
757 757 758 758 758 760 762 763 765 766 767 768 771 774 777 781 783 784 786 788 790 791 793 795 796 799 801 802 802 802 803 804 806 810 812 812 812 813 814 814 815 816 818 819 820 820 821 822 823 824 825 826 827 828 828 830 831 833 835 836 837 839 841 842 842 842 843 844 848 850 851 852 853 852 851 852 853 854 854 855 856 857 858 859 860
756 757 758 757 757 758 760 762 765 766 767 769 772 775 777 780 782 784 785 787 788 789 791 794 797 800 801 802 803 803 804 804 805 808 810 810 810 811 812 813 814 815 817 818 819 820 820 821 822 823 824 825 826 826 827 829 831 833 835 836 836 836 839 841 841 842 842 843 844 847 850 853 853 852 852 853 854 854 855 855 856 857 858 859 860
757 758 758 758 758 759 760 762 764 765 767 770 774 776 778 780 782 783 784 785 786 788 789 791 794 796 797 799 800 801 802 802 803 805 806 807 808 810 812 813 814 815 816 817 818 819 819 820 821 822 823 825 826 826 827 829 831 832 833 834 835 835 837 839 840 841 842 843 843 843 845 847 848 851 853 855 855 855 856 856 857 858 859 859 860
756 758 758 758 759 760 761 762 763 765 768 771 774 777 779 780 781 782 783 784 785 787 788 789 791 793 794 795 796 797 799 799 800 803 804 806 808 809 811 812 813 814 815 816 817 818 819 819 820 821 823 824 825 825 827 828 830 831 832 833 834 835 836 837 839 840 841 843 843 843 843 843 845 847 850 853 855 856 856 857 857 858 859 859 860
755 758 758 759 761 763 765 766 766 768 770 771 772 773 775 777 779 781 781 782 784 786 787 788 789 790 791 793 795 795 796 796 799 801 803 805 808 809 810 811 812 813 814 815 816 817 818 818 820 821 822 823 824 825 826 828 829 830 832 833 834 835 835 836 837 838 839 841 842 843 843 843 844 845 847 849 852 855 856 857 858 858 859 860 860
761 763 764 765 766 768 770 770 770 771 772 772 771 771 771 770 771 774 777 779 781 784 785 786 787 788 789 791 793 794 795 796 798 799 801 804 807 808 809 810 811 812 813 814 815 816 817 818 819 820 821 822 823 824 826 827 828 829 830 832 833 834 834 835 836 837 838 839 841 842 842 844 845 846 847 848 850 854 856 856 857 858 859 860 860
768 770 771 772 771 771 772 772 772 772 771 772 772 771 769 767 766 767 771 775 777 780 781 783 784 786 788 789 791 793 794 796 797 798 800 802 805 807 808 809 810 811 812 813 814 815 816 817 818 819 820 821 822 824 825 826 827 828 830 831 832 833 834 835 836 837 837 839 840 840 841 843 845 846 847 848 850 852 854 855 856 857 858 859 860
773 774 775 776 775 774 773 773 774 774 773 772 772 773 773 773 773 771 771 774 776 778 779 780 782 784 785 787 789 791 793 796 796 796 798 800 802 804 806 807 808 810 811 812 813 814 815 816 817 818 819 820 822 823 824 825 826 827 829 830 831 832 833 834 835 836 837 838 839 839 840 840 841 843 844 846 848 849 852 855 856 857 857 858 859
777 778 778 778 778 777 776 776 776 776 776 775 775 777 777 776 777 775 773 774 776 778 780 781 782 783 785 786 788 790 792 794 795 795 796 797 799 802 804 806 808 810 811 811 812 814 815 816 817 818 819 820 821 823 823 824 825 827 828 829 830 831 832 833 834 835 836 837 838 839 839 839 840 841 842 843 845 847 849 853 855 856 857 858 859
782 782 782 782 782 781 780 779 779 778 777 779 781 778 775 775 777 776 774 774 775 778 780 782 783 784 785 786 787 789 790 793 794 794 795 796 798 800 802 805 807 809 810 810 811 813 815 816 816 817 819 820 821 822 823 823 825 826 827 828 829 830 831 832 833 835 835 836 837 838 839 840 840 841 842 843 845 846 848 851 854 856 857 858 859
786 786 786 785 785 784 782 781 781 780 778 780 780 774 773 778 780 780 778 777 776 777 779 781 783 785 786 787 788 789 791 794 795 795 795 796 797 799 801 803 805 807 809 809 811 813 814 815 816 817 818 819 820 822 822 823 824 825 826 827 829 830 831 832 833 834 835 836 837 837 838 839 840 841 842 843 844 846 847 849 852 856 857 858 859
787 788 787 787 786 785 784 783 782 782 781 781 779 775 778 783 784 784 783 781 779 778 778 780 783 785 787 788 789 791 793 796 797 797 796 797 798 799 801 802 804 806 807 809 810 812 812 813 815 816 817 818 820 821 822 823 824 825 826 827 828 830 831 832 833 834 834 835 836 837 837 838 840 841 841 842 843 844 846 847 849 853 857 859 859
790 791 790 789 788 786 785 785 784 785 785 785 782 780 781 782 783 784 784 784 783 782 782 783 785 788 789 789 790 792 793 794 796 797 797 797 798 799 800 802 803 805 807 808 809 810 811 812 814 815 817 818 819 820 821 822 823 824 825 827 828 829 831 831 832 833 834 835 835 836 837 838 839 840 841 842 843 844 845 846 847 849 852 856 859
797 796 796 794 792 790 788 786 785 785 785 786 784 781 779 779 780 781 783 784 785 784 783 784 786 789 791 792 792 792 792 791 793 795 795 795 796 797 798 800 802 804 805 807 808 809 810 812 813 815 816 817 818 819 821 822 823 824 825 826 828 829 830 831 832 832 833 834 835 836 836 837 838 839 840 841 842 844 845 846 847 847 848 851 855
801 800 799 798 796 795 791 788 786 785 784 784 783 780 777 776 777 778 780 782 783 783 782 781 781 783 787 790 791 791 790 790 790 791 791 792 792 794 796 798 800 802 804 805 807 809 810 812 813 814 815 816 818 819 820 821 822 823 824 826 827 829 830 831 831 832 833 834 835 835 836 837 837 838 839 840 841 843 844 845 846 848 848 848 850
803 801 800 799 798 797 794 791 788 786 785 784 783 781 777 776 775 776 779 780 781 782 780 778 776 776 780 785 788 789 788 788 788 788 788 787 788 789 791 794 797 800 802 804 806 808 810 811 812 813 814 815 817 818 819 820 822 823 824 825 827 828 830 830 831 832 832 833 834 835 836 836 837 837 838 840 841 842 843 845 846 848 849 849 849
806 803 801 799 799 799 796 793 790 788 787 786 785 783 780 777 776 776 779 781 781 781 780 779 778 778 780 782 784 785 785 786 787 786 785 785 786 786 787 790 794 797 800 803 805 808 809 811 812 813 814 815 816 818 819 820 821 822 824 825 826 828 829 830 830 831 832 833 834 835 835 836 836 837 838 839 840 842 843 844 846 847 849 850 850
809 805 802 801 800 800 798 795 792 790 790 788 788 786 783 780 778 778 779 781 781 781 781 781 780 779 780 780 781 782 782 783 783 783 786 789 791 790 788 789 791 794 798 801 804 806 808 810 811 812 813 814 816 817 819 820 821 822 824 825 826 827 829 829 830 830 831 832 834 834 835 835 836 837 837 838 839 841 842 844 845 847 848 849 850
812 808 804 803 802 801 798 794 793 792 792 791 790 788 786 784 782 781 781 781 781 781 780 780 779 778 778 777 778 779 779 780 781 783 787 791 793 794 792 789 789 793 796 799 802 805 807 809 810 812 813 814 815 817 818 820 821 823 824 825 826 827 828 828 829 830 831 832 833 833 834 835 836 836 837 838 839 840 842 843 844 845 847 848 848
813 810 805 803 802 801 798 795 794 794 793 793 791 790 788 786 784 782 781 781 780 780 780 779 779 778 777 777 777 777 777 777 779 782 787 790 792 795 794 789 789 792 795 798 801 804 806 808 810 811 812 813 815 816 818 820 821 822 823 824 825 826 827 827 828 829 830 831 831 832 833 834 835 835 836 837 838 839 841 842 843 844 846 847 847
813 809 803 800 797 797 797 795 796 795 794 793 793 792 790 788 785 783 781 780 779 779 778 777 778 778 778 778 777 776 775 776 779 782 786 790 793 796 796 790 789 792 795 798 801 803 805 807 809 810 811 813 814 816 818 819 820 821 823 824 825 825 826 827 827 828 829 830 831 831 832 833 834 834 835 836 837 838 840 841 842 843 845 846 846
813 808 804 800 798 798 798 798 797 796 795 794 793 793 792 790 787 784 781 780 779 779 777 775 775 777 778 778 777 776 775 777 780 782 785 789 791 795 796 792 790 792 795 798 801 803 805 806 808 809 811 812 814 815 817 819 820 821 822 823 824 825 826 826 827 828 829 830 830 831 831 832 833 833 834 835 836 837 839 840 841 843 844 845 845
815 811 808 806 803 803 802 802 801 799 797 795 794 793 792 791 789 786 783 780 779 779 777 773 772 773 775 776 775 775 775 777 780 781 782 786 788 791 795 794 792 792 795 798 801 803 805 806 808 809 810 812 814 815 817 818 819 820 821 822 823 824 825 826 827 828 829 829 830 830 831 831 831 832 833 834 835 836 837 838 840 841 843 844 844
819 816 814 812 809 807 806 805 805 803 801 798 795 793 791 790 788 785 783 781 780 779 776 772 769 769 772 774 773 774 774 775 778 779 781 784 786 788 792 795 796 794 795 798 801 803 805 806 807 809 810 812 813 815 816 817 818 819 821 821 822 823 824 825 826 827 828 829 830 830 831 830 831 831 832 833 834 835 836 837 839 840 841 842 843
822 821 820 818 816 814 811 808 807 805 803 800 797 795 792 790 788 785 782 780 779 778 776 774 771 769 770 773 773 772 772 773 776 778 779 782 784 786 789 795 799 798 796 797 800 803 804 805 807 809 810 812 813 814 816 817 818 819 820 821 821 822 823 824 825 826 828 829 830 830 830 830 830 831 832 833 834 834 835 836 838 839 840 841 842
826 825 824 823 822 820 817 814 811 808 806 803 800 797 794 792 789 786 784 781 780 779 777 776 773 770 768 770 771 771 772 772 774 776 778 781 784 786 789 795 800 798 796 797 800 802 804 805 807 809 810 811 812 814 815 816 818 818 819 820 821 822 823 823 825 826 828 829 829 830 830 830 830 831 832 833 833 834 834 835 837 838 839 840 841
830 828 827 826 825 824 822 819 816 812 810 807 804 801 797 794 791 789 786 784 782 780 778 777 775 772 768 768 769 769 770 771 771 773 776 780 785 786 788 794 797 795 795 796 799 802 804 806 808 809 810 811 812 814 815 816 817 818 819 820 821 822 822 823 824 826 827 828 829 829 829 829 830 831 832 832 833 833 834 835 836 837 838 839 839
833 831 829 827 825 825 823 822 820 817 814 811 808 805 801 798 795 791 789 786 784 782 780 778 775 772 769 768 768 768 769 770 770 772 775 779 784 785 788 793 793 792 793 795 797 800 803 806 808 809 810 811 812 814 815 816 817 818 819 820 821 822 822 823 824 825 826 827 828 828 829 830 830 831 832 832 833 834 835 836 836 836 837 838 838
835 833 831 829 827 825 824 823 822 820 818 815 813 809 805 802 799 795 792 789 786 784 781 779 776 773 770 768 768 768 769 769 770 772 775 778 782 784 787 791 790 790 792 794 796 799 802 806 808 809 810 811 813 814 815 816 817 818 819 820 821 821 822 823 824 825 826 826 827 828 829 830 830 831 832 833 834 835 836 836 836 836 837 838 839
837 836 834 832 830 828 826 825 823 822 820 818 816 813 810 807 803 799 796 792 789 787 784 781 777 773 770 768 767 767 768 768 769 771 774 778 782 783 786 788 788 789 791 793 796 798 801 805 808 809 811 811 813 815 816 817 818 818 819 820 820 821 822 823 824 824 825 826 827 828 829 829 830 831 832 833 834 835 836 836 836 836 838 839 840
840 839 837 835 833 831 830 827 825 824 822 820 818 816 814 811 807 803 799 796 793 790 787 784 780 776 773 770 768 767 766 766 768 770 774 778 780 782 785 787 786 788 791 792 796 798 800 804 808 809 811 812 813 815 816 817 818 817 818 818 819 821 821 822 823 824 825 826 827 828 828 829 830 831 831 832 833 834 835 836 835 836 838 840 840
844 842 840 838 836 834 832 830 828 826 823 821 819 817 815 812 808 805 801 799 796 793 790 787 784 780 776 773 770 769 768 766 767 770 773 776 778 781 785 786 786 788 790 792 796 799 800 803 808 810 811 812 813 815 816 817 818 817 817 818 819 820 821 822 823 824 825 826 828 828 829 829 830 831 831 832 833 834 835 835 836 837 838 839 840
846 845 843 840 838 837 835 832 830 828 825 822 820 818 815 812 809 807 804 802 799 796 793 791 788 784 781 777 775 773 772 770 768 770 774 777 780 782 784 785 786 789 791 794 797 799 800 803 807 810 811 812 814 815 816 817 818 817 817 818 819 821 821 822 823 824 825 827 828 829 829 829 830 830 831 832 833 834 834 835 836 837 838 839 839
848 847 844 842 841 839 837 835 833 830 827 825 822 820 817 814 811 808 806 804 801 799 797 795 792 789 786 783 780 778 778 776 772 772 776 779 782 785 785 784 786 789 793 796 799 801 802 803 806 809 811 812 814 816 816 816 817 817 818 818 820 821 822 823 824 825 826 827 828 829 829 830 830 830 831 832 832 833 834 835 836 837 838 839 839
849 848 846 844 842 840 839 837 834 832 830 827 825 822 819 815 813 811 809 807 804 803 801 799 797 794 791 788 786 784 785 783 777 776 779 781 784 787 787 786 787 791 794 798 801 802 803 804 806 809 811 813 815 816 817 817 817 817 818 819 820 821 822 824 825 826 827 828 828 829 830 830 830 830 831 831 832 833 834 835 836 837 837 837 838
849 848 847 846 844 842 841 839 836 834 832 829 827 824 821 818 816 814 813 810 808 807 805 803 802 799 796 792 790 790 791 789 784 781 782 783 786 789 790 791 792 794 796 800 803 802 803 805 807 810 812 814 815 817 818 818 817 818 818 818 819 821 823 825 826 827 828 829 829 830 830 830 831 831 832 832 832 833 834 835 836 836 837 837 837
851 850 849 848 846 844 843 841 839 837 834 832 830 826 823 821 820 818 816 814 813 812 810 808 805 803 800 797 794 795 796 794 789 787 786 787 789 792 794 796 797 797 799 802 804 803 803 807 809 811 814 815 816 818 819 819 819 819 819 819 819 820 823 825 827 828 829 830 830 831 831 831 832 832 832 832 833 833 834 835 836 836 836 837 838
853 851 850 849 848 846 845 843 842 840 837 835 832 829 826 825 823 821 819 818 817 815 813 811 809 806 804 801 799 799 800 798 795 793 791 792 794 796 798 799 801 801 801 804 805 804 805 809 812 813 815 817 818 820 820 821 821 821 821 821 821 822 824 825 827 829 830 830 831 831 832 832 832 832 832 832 833 834 834 835 835 836 837 837 838
854 853 851 850 849 848 847 845 844 842 839 837 835 831 829 828 826 824 823 822 820 818 816 814 812 809 807 805 803 802 802 802 801 799 798 798 799 801 801 802 805 805 805 806 807 807 808 812 815 816 817 819 820 821 822 822 823 823 823 823 823 824 825 826 827 828 829 830 831 831 831 831 832 832 832 833 833 834 835 836 836 836 837 837 838
855 854 853 851 850 849 848 847 846 844 842 840 837 834 832 831 829 828 827 826 823 821 819 817 815 812 810 809 808 807 806 806 806 806 805 805 805 805 805 806 809 810 810 809 809 809 811 814 817 819 821 822 822 822 823 824 825 825 825 824 824 825 827 828 827 828 829 831 831 831 831 832 832 833 833 834 835 836 836 836 837 837 837 837 838
856 855 854 853 852 851 850 849 848 846 844 842 839 838 836 834 833 832 830 829 827 825 823 821 819 817 815 814 813 812 811 811 811 811 811 810 810 811 810 811 813 815 815 813 812 812 814 816 819 822 823 824 824 825 826 827 827 827 826 826 826 827 828 829 828 829 830 831 832 832 832 833 834 834 835 836 836 837 837 838 838 838 838 838 838
857 856 855 854 853 853 852 851 849 847 845 843 842 840 839 837 836 835 833 832 830 828 826 825 823 821 820 818 817 816 816 815 815 815 814 814 815 815 815 815 816 818 819 817 815 816 817 818 821 824 826 827 828 830 830 830 829 829 828 828 829 829 829 830 829 830 831 832 832 833 834 835 835 836 836 837 837 838 839 839 839 839 839 839 839
858 857 856 855 855 855 853 852 851 849 847 845 843 842 841 840 839 838 836 834 833 831 829 828 827 825 824 822 821 820 820 819 819 818 817 817 818 818 818 818 819 819 820 818 818 819 820 821 823 826 828 830 831 832 832 831 831 830 829 829 829 830 830 831 831 831 832 833 834 835 836 836 837 837 838 838 839 840 840 840 840 840 839 840 840
858 858 857 857 857 856 855 853 852 850 848 846 845 844 843 842 841 840 838 837 835 834 832 831 830 829 828 826 825 824 823 823 822 821 820 820 820 820 821 821 821 822 821 821 821 823 824 825 826 828 829 830 831 831 832 832 832 831 830 830 830 831 831 832 832 833 834 835 836 837 837 838 838 838 839 839 840 840 840 840 840 840 841 841 841
859 859 858 858 857 857 856 855 853 851 850 848 847 846 845 844 843 841 840 839 837 836 835 834 833 832 831 830 828 827 827 826 826 825 824 823 823 824 824 824 825 825 825 825 825 826 827 827 828 829 830 830 831 832 833 833 834 834 832 832 832 832 833 834 834 835 836 836 837 838 838 839 839 839 839 840 840 840 841 841 841 841 841 842 841
860 859 858 858 858 857 856 855 854 852 851 850 848 848 847 845 844 843 842 841 839 838 837 836 835 834 833 832 831 830 830 829 829 828 828 827 827 827 828 828 828 828 829 829 828 829 829 829 829 830 830 831 832 834 835 835 835 835 834 834 833 833 834 835 836 836 837 837 838 838 839 839 840 840 840 841 841 842 842 842 842 842 841 841 841
860 860 859 859 858 857 856 855 854 853 852 851 850 849 848 847 846 845 843 842 841 840 839 838 836 835 835 834 833 833 832 831 831 831 831 831 830 830 830 830 830 831 831 831 831 831 831 831 831 831 832 833 834 835 836 836 836 836 835 835 834 835 836 836 837 837 837 838 838 839 840 841 841 841 842 842 843 843 842 842 842 841 841 841 840
861 860 860 859 858 858 856 855 854 853 852 852 851 850 849 848 847 846 845 844 843 842 840 839 838 837 836 835 835 834 834 834 833 833 833 833 833 833 833 833 833 833 833 833 833 833 833 833 833 833 834 835 836 836 837 837 837 836 836 836 836 837 837 838 838 838 838 839 840 841 842 843 843 843 843 844 843 843 842 842 842 842 841 841 841